Showing default

TIANHUI 5B, 58201

Orbit data source: Space-Track

TIANHUI 5B, 58201 is a payload satellite owned by G. Cehui dili (CN) in SSO that was launched on Tue, 31 Oct 2023 UTC via a CHANG ZHENG 6A launch vehicle from the Taiyaun Space Center, China (TSC). Payload-class satellites include a variety of spacecraft equipped with specific instruments for various scientific and technological missions. These include communications satellites like Starlink; space stations such as the ISS; scientific satellites like the Hubble; Earth observation satellites from companies like Planet Labs, Umbra, and HawkEye 360; GPS; miniature CubeSats for education and research; and military/defense satellites.

Loading next visibility...
Identifier
58201, 2023-168C
Orbit
SSO
Last TLE update
6 hours ago
Origin
Manufacturer
DFH
Mission
Operational Civil Radar Imaging
Bus & Motor
CAST-2000?, Unknown motor
Mass
~1,000 kg wet, ~1,000 kg dry
Launch date (UTC)
2023-10-31 (2 years ago)
Launch vehicle
CHANG ZHENG 6A
Launch site
Taiyaun Space Center, China (TSC)
Object type
Payload
Rocket body
Debris
Shape & HBR
Box + 2 Pan, 6 m
Radar Cross Section
8.157 m², Large (>1 m²)

Expand to show TLE details & history

TLE from 6 hours ago
0 TIANHUI 5B
1 58201U 23168C   25187.80750709  .00000501  00000-0  61169-4 0  9998
2 58201  97.8217 195.1382 0001600  93.3394 266.8006 14.87578734 91258
Epoch: 2025-07-06T19:22Z
TLE epoch observation values (Epoch: 2025-07-06T19:22:48.612Z)
Latitude
0.00004°
Longitude
-20.59025°
Altitude
608.6 km
Speed
7.555 km/s
True Right ascension
13h 00m 33s
True Declination
0° 00' 00"
Sunlit
Object was in daylight at epoch
Visualization orbit readout
Latitude
4.26197°
Longitude
-20.90764°
Altitude
608.046 km
Speed
7.556 km/s
Apparent Right ascension
11h 11m 21s
Apparent Declination
-55° 14' 53"
Sunlit
Object is in daylight
Visualization observer readout
Local Sidereal Time
13:52:05
Azimuth
202.017° SSW
Elevation
-11.14°
Doppler factor
1
Orbital elements
Apogee altitude
603.648 km
Perigee altitude
601.414 km
Semi-major axis
6,980.668 km
Eccentricity
0.00016
Inclination
97.8217°
RAAN
195.1382°
Arg. of periapsis
93.3394°
True anomaly
Unknown
Mean anomaly
266.8006°
Eccentric anomaly
Unknown
Mean motion
3.72133 °/min
Orbital period
96.74 mins
BSTAR
0.000061169
Loading maneuver chart data...
Loading SW <> Apogee altitude chart data...
Loading historical data...
Loading historical data...
Loading historical data...
Loading historical data...
Loading historical data...
Loading historical data...
Loading historical data...
Other satellites on launch #168 in the year 2023 (2023-10-31 UTC)

TIANHUI 5B Visibility forecast

Observer location: undefined°, undefined°

Span
Click to sort rows by Start time (UTC) header in descending order
Start Az.
Max El. time (UTC)
Max El. Az.
Max El.
End time (UTC)
End Az.
6 mins2025-07-07 13:43:24.283Z352.935° N2025-07-07 13:45:24.283Z296.412° NW39.067°2025-07-07 13:49:24.283Z209.722° SW
6 mins2025-07-08 00:34:24.283Z169.562° S2025-07-08 00:37:24.283Z324.247° NNW44.166°2025-07-08 00:40:24.283Z345.707° N
|